Location: Caltech
(34.1382°N, 118.1253°W)
Time: 11:50:05
(UTC-08:00)

AO-7 - Pass Details

Date: 26 March 2018
Orbit: 1439 x 1459 km, 101.7° (Epoch: 16 November)

Event Time Altitude Azimuth Distance (km) Brightness Sun altitude
Rises 05:13:00 0° 10° (N) 4,540 ? -20.1°
Reaches altitude 10° 05:15:51 10° 6° (N) 3,558 ? -19.5°
Maximum altitude 05:23:46 52° 293° (WNW) 1,735 ? -18.0°
Enters shadow 05:30:26 15° 223° (SW) 3,134 ? -16.6°
